Home > Weather > Kolkata > Past weeks

Flag for India Weather for the Past 2 Weeks in Kolkata, West Bengal, India

Now
84 °F

Scattered clouds.


Feels Like: 98 °F
Forecast: 83 / 99 °F
Wind: 12 mph from Southwest

Location: Calcutta / Dum Dum

Current Time: May 7, 2016 at 6:06:02 AM

Latest Report: May 7, 2016 at 5:30 AM


Visibility: 2 mi

Pressure: 29.71 "Hg

Humidity: 89%

Dew Point: 81 °F

Location of KolkataLocation

Historic Weather in Kolkata — Graph

°F

Kolkata Temperature Yesterday

Maximum temperature yesterday: 100 °F (at 2:00 PM)
Minimum temperature yesterday: 77 °F (at 5:30 AM)
Average temperature yesterday: 89 °F

High & Low Weather Summary for the Past Weeks

 TemperatureHumidityPressure
High108 °F (Apr 24, 3:00 PM)94% (May 3, 6:30 AM)29.83 "Hg (May 3, 6:30 AM)
Low73 °F (May 5, 1:00 AM)18% (Apr 24, 3:00 PM)29.42 "Hg (Apr 23, 4:00 PM)
Average90 °F67%29.65 "Hg
* Reported Apr 22 4:30 AM — May 7 5:00 AM, Kolkata, Weather by CustomWeather, © 2016

Note: Actual official high and low records may vary slightly from our data, if they occured in-between our weather recording intervals... More about our weather records

Advertising

Kolkata Weather History for the Previous 24 Hours

Scroll right to see more
 ConditionsComfort  
Time TempWeatherWind HumidityBarometerVisibility
5:00 AM
Sat, May 7
84 °FPassing clouds.9 mph89%29.71 "Hg2 mi
4:30 AM84 °FPartly cloudy.9 mph89%29.71 "Hg2 mi
4:00 AM84 °FPartly cloudy.9 mph89%29.68 "Hg2 mi
3:30 AM84 °FPassing clouds.8 mph89%29.68 "Hg2 mi
3:00 AM84 °FPassing clouds.10 mph89%29.68 "Hg2 mi
2:30 AM84 °FPassing clouds.12 mph89%29.68 "Hg2 mi
2:00 AM84 °FPassing clouds.12 mph89%29.68 "Hg2 mi
1:30 AM84 °FPassing clouds.10 mph89%29.68 "Hg2 mi
1:00 AM84 °FPassing clouds.14 mph89%29.71 "Hg2 mi
12:30 AM86 °FPassing clouds.13 mph84%29.68 "Hg2 mi
12:00 AM86 °FPassing clouds.10 mph84%29.68 "Hg2 mi
11:30 PM
Fri, May 6
86 °FPassing clouds.7 mph79%29.71 "Hg2 mi
11:00 PM86 °FPassing clouds.9 mph75%29.71 "Hg2 mi
10:30 PM86 °FPassing clouds.9 mph70%29.71 "Hg2 mi
10:00 PM86 °FPassing clouds.9 mph70%29.74 "Hg2 mi
9:30 PM88 °FPassing clouds.12 mph66%29.74 "Hg2 mi
9:00 PM88 °FPassing clouds.14 mph66%29.71 "Hg2 mi
8:30 PM88 °FPassing clouds.16 mph66%29.74 "Hg2 mi
8:00 PM90 °FPassing clouds.14 mph63%29.71 "Hg2 mi
7:30 PM91 °FPassing clouds.14 mph56%29.68 "Hg2 mi
7:00 PM93 °FPassing clouds.12 mph49%29.68 "Hg2 mi
6:30 PM93 °FScattered clouds.12 mph49%29.68 "Hg2 mi
5:30 PM95 °FScattered clouds.12 mph44%29.65 "Hg2 mi
5:00 PM97 °FScattered clouds.8 mph42%29.62 "Hg2 mi
4:30 PM97 °FScattered clouds.8 mph42%29.62 "Hg2 mi
4:00 PM97 °FScattered clouds.8 mph42%29.65 "Hg2 mi
3:30 PM97 °FScattered clouds.9 mph42%29.65 "Hg2 mi
3:00 PM99 °FScattered clouds.7 mph37%29.68 "Hg2 mi
2:30 PM99 °FScattered clouds.5 mph37%29.68 "Hg2 mi
2:00 PM100 °FScattered clouds.7 mph33%29.71 "Hg2 mi
1:30 PM99 °FScattered clouds.7 mph37%29.71 "Hg2 mi
1:00 PM99 °FHaze.7 mph37%29.74 "Hg2 mi
12:30 PM99 °FHaze.8 mph37%29.74 "Hg2 mi
12:00 PM97 °FHaze.5 mph39%29.77 "Hg2 mi
11:30 AM97 °FHaze.6 mph42%29.77 "Hg2 mi
11:00 AM95 °FHaze.7 mph47%29.77 "Hg2 mi
10:30 AM93 °FHaze.9 mph49%29.80 "Hg2 mi
10:00 AM93 °FHaze.9 mph49%29.80 "Hg2 mi
9:30 AM91 °FHaze.9 mph52%29.80 "Hg2 mi
9:00 AM91 °FHaze.13 mph59%29.80 "Hg2 mi
8:30 AM90 °FScattered clouds.12 mph59%29.80 "Hg2 mi
8:00 AM88 °FHaze.9 mph62%29.80 "Hg2 mi
7:30 AM86 °FHaze.10 mph62%29.77 "Hg2 mi
7:00 AM84 °FHaze.5 mph66%29.77 "Hg2 mi
6:30 AM81 °FHaze.3 mph74%29.77 "Hg2 mi
6:00 AM79 °FHaze.3 mph79%29.74 "Hg2 mi
Weather by CustomWeather, © 2016

See weather overviewHow to use our weather pages